Regional Weather Roundup
Issued by NWS

Home | Current Version | Previous Version | Text Only | Print | Product List | Glossary Off
Versions: 1 2 3 4 5 6 7 8 9 10 11 12 13 14 15 16 17 18 19 20 21 22 23 24 25 26 27 28 29 30 31 32 33 34 35 36 37 38 39 40 41 42 43 44 45 46 47 48 49 50

888
ASUS43 KBIS 212310
RWRND

NORTH DAKOTA REGIONAL WEATHER ROUNDUP
NATIONAL WEATHER SERVICE BISMARCK ND
500 PM CST SUN JAN 21 2018

NOTE: "FAIR" INDICATES FEW OR NO CLOUDS BELOW 12,000 FEET WITH NO
SIGNIFICANT WEATHER AND/OR OBSTRUCTIONS TO VISIBILITY.


NDZ001>003-009>011-017-220000-
NORTHWEST NORTH DAKOTA

CITY           SKY/WX    TMP DP  RH WIND       PRES   REMARKS
WILLISTON      CLEAR     29  21  72 SW9       29.99S
MINOT          CLEAR     30  22  72 S8        29.99R
MINOT AFB      CLEAR     29  21  72 SW7       29.98R
$$

NDZ018>021-031>035-040>046-220000-
SOUTHWEST NORTH DAKOTA

CITY           SKY/WX    TMP DP  RH WIND       PRES   REMARKS
BISMARCK       PTCLDY    27  22  81 CALM      30.03S
DICKINSON      PTCLDY    30  23  75 W8        29.97R
GARRISON         N/A     27  22  81 CALM      29.99R
HETTINGER ARPT CLEAR     35  24  64 NW7       29.99R
$$

NDZ004>008-012>016-024-026-027-054-220000-
NORTHEAST NORTH DAKOTA

CITY           SKY/WX    TMP DP  RH WIND       PRES   REMARKS
GRAND FORKS    CLOUDY    25  23  92 N8        30.10R WCI  16
GRND FRKS AFB  CLOUDY    25  22  87 NE5       30.10R WCI  20
DEVILS LAKE    SNOW      21  20  96 SE6       30.08R VSB 1/4 WCI  13
$$

NDZ022-023-025-028>030-036>039-047>053-220000-
SOUTHEAST NORTH DAKOTA

CITY           SKY/WX    TMP DP  RH WIND       PRES   REMARKS
FARGO          MOCLDY    26  23  88 N7        30.06S WCI  18
JAMESTOWN      CLOUDY    27  24  89 CALM      30.03S
$$





USA.gov is the U.S. government's official web portal to all federal, state and local government web resources and services.